• In Hungary
  • List of Countries
  • For 7 days
  • Water Temperature
  • Satellite Maps
  • Weather Map
  • News
  • Weather Widgets
  • user-avatar
    Login

    Hourly Weather Berlyagino

    Today, 23 October, Tuesday

    Time Temperature Precipitation Wind Pressure Humidity
    00:00 +4°C° 0.5 mm 4 mps 740 mmHg 86%
    01:00 +4°C° 0.5 mm 4 mps 739 mmHg 87%
    02:00 +5°C° 0 mm 3 mps 738 mmHg 90%
    03:00 +5°C° 0.8 mm 3 mps 738 mmHg 90%
    04:00 +5°C° 0.8 mm 3 mps 738 mmHg 91%
    05:00 +5°C° 0.8 mm 3 mps 737 mmHg 92%
    06:00 +5°C° 0 mm 3 mps 737 mmHg 90%
    07:00 +5°C° 0 mm 3 mps 737 mmHg 89%
    08:00 +4°C° 0 mm 3 mps 737 mmHg 87%
    09:00 +5°C° 0 mm 3 mps 736 mmHg 82%
    10:00 +5°C° 0 mm 3 mps 736 mmHg 77%
    11:00 +7°C° 0 mm 2 mps 736 mmHg 72%
    12:00 +7°C° 0 mm 2 mps 735 mmHg 71%
    13:00 +7°C° 0 mm 2 mps 734 mmHg 70%
    14:00 +7°C° 0 mm 2 mps 734 mmHg 69%
    15:00 +6°C° 0 mm 2 mps 733 mmHg 73%
    16:00 +6°C° 0 mm 2 mps 733 mmHg 78%
    17:00 +5°C° 0 mm 2 mps 732 mmHg 83%
    18:00 +5°C° 0 mm 2 mps 731 mmHg 84%
    19:00 +4°C° 0 mm 2 mps 730 mmHg 84%
    20:00 +3°C° 0 mm 3 mps 730 mmHg 85%
    21:00 +3°C° 0 mm 3 mps 729 mmHg 86%
    22:00 +3°C° 0 mm 3 mps 728 mmHg 86%
    23:00 +3°C° 0 mm 3 mps 727 mmHg 86%

    Tomorrow, 24 October, Wednesday

    Time Temperature Precipitation Wind Pressure Humidity
    00:00 +3°C° 0.1 mm 3 mps 727 mmHg 86%
    01:00 +3°C° 0.1 mm 3 mps 726 mmHg 85%
    02:00 +3°C° 0.1 mm 3 mps 725 mmHg 84%
    03:00 +3°C° 0.2 mm 4 mps 724 mmHg 84%
    04:00 +3°C° 0.2 mm 4 mps 724 mmHg 84%
    05:00 +3°C° 0.2 mm 4 mps 723 mmHg 84%
    06:00 +3°C° 0.2 mm 4 mps 722 mmHg 84%
    07:00 +3°C° 0.2 mm 4 mps 722 mmHg 84%
    08:00 +3°C° 0.2 mm 4 mps 722 mmHg 84%
    09:00 +3°C° 0.2 mm 4 mps 722 mmHg 83%
    10:00 +4°C° 0.2 mm 4 mps 722 mmHg 82%
    11:00 +4°C° 0.2 mm 4 mps 722 mmHg 81%
    12:00 +4°C° 0.5 mm 4 mps 722 mmHg 82%
    13:00 +4°C° 0.5 mm 3 mps 722 mmHg 83%
    14:00 +4°C° 0.5 mm 3 mps 721 mmHg 84%
    15:00 +4°C° 0.3 mm 3 mps 722 mmHg 86%
    16:00 +4°C° 0.3 mm 3 mps 722 mmHg 87%
    17:00 +4°C° 0.3 mm 3 mps 722 mmHg 89%
    18:00 +4°C° 0.1 mm 3 mps 722 mmHg 89%
    19:00 +4°C° 0.1 mm 3 mps 722 mmHg 90%
    20:00 +4°C° 0.1 mm 3 mps 722 mmHg 91%
    21:00 +4°C° 0.5 mm 4 mps 722 mmHg 91%
    22:00 +3°C° 0.5 mm 4 mps 721 mmHg 91%
    23:00 +3°C° 0.5 mm 4 mps 721 mmHg 91%

    Day after tomorrow, 25 October, Thursday

    Time Temperature Precipitation Wind Pressure Humidity
    00:00 +3°C° 1.2 mm 4 mps 721 mmHg 91%
    01:00 +2°C° 1.2 mm 5 mps 721 mmHg 90%
    02:00 +2°C° 1.2 mm 5 mps 721 mmHg 90%
    03:00 +2°C° 1.1 mm 5 mps 721 mmHg 89%
    04:00 +2°C° 1.1 mm 5 mps 721 mmHg 89%
    05:00 +2°C° 1.1 mm 5 mps 721 mmHg 88%
    06:00 +2°C° 0.7 mm 5 mps 721 mmHg 87%
    07:00 +1°C° 0.7 mm 6 mps 721 mmHg 86%
    08:00 +1°C° 0.7 mm 6 mps 721 mmHg 85%
    09:00 +1°C° 0.3 mm 6 mps 721 mmHg 83%
    10:00 +2°C° 0.3 mm 6 mps 722 mmHg 82%
    11:00 +2°C° 0.3 mm 6 mps 722 mmHg 80%
    12:00 +2°C° 0.1 mm 6 mps 722 mmHg 79%
    13:00 +2°C° 0.1 mm 6 mps 722 mmHg 78%
    14:00 +2°C° 0.1 mm 6 mps 722 mmHg 77%
    15:00 +1°C° 0.1 mm 6 mps 722 mmHg 78%
    16:00 +1°C° 0.1 mm 5 mps 722 mmHg 78%
    17:00 +1°C° 0.1 mm 5 mps 723 mmHg 79%
    18:00 +1°C° 0 mm 5 mps 723 mmHg 78%
    19:00 +1°C° 0 mm 5 mps 723 mmHg 78%
    20:00 +1°C° 0 mm 5 mps 723 mmHg 77%
    21:00 0°C° 0 mm 5 mps 724 mmHg 78%
    22:00 0°C° 0 mm 5 mps 724 mmHg 79%
    23:00 0°C° 0 mm 5 mps 724 mmHg 80%

    26 October, Friday

    Time Temperature Precipitation Wind Pressure Humidity
    00:00 0°C° 0 mm 5 mps 724 mmHg 80%
    01:00 0°C° 0 mm 5 mps 725 mmHg 81%
    02:00 0°C° 0 mm 5 mps 725 mmHg 81%
    03:00 0°C° 0 mm 5 mps 725 mmHg 82%
    04:00 -1°C° 0 mm 5 mps 726 mmHg 83%
    05:00 -1°C° 0 mm 5 mps 726 mmHg 84%
    06:00 -1°C° 0 mm 5 mps 726 mmHg 82%
    07:00 -1°C° 0 mm 5 mps 727 mmHg 81%
    08:00 0°C° 0 mm 5 mps 727 mmHg 79%
    09:00 0°C° 0 mm 5 mps 727 mmHg 78%
    10:00 0°C° 0 mm 5 mps 728 mmHg 77%
    11:00 +1°C° 0 mm 5 mps 728 mmHg 75%
    12:00 +1°C° 0 mm 5 mps 728 mmHg 75%
    13:00 +1°C° 0 mm 5 mps 729 mmHg 75%
    14:00 +1°C° 0 mm 5 mps 729 mmHg 75%
    15:00 +1°C° 0.1 mm 5 mps 729 mmHg 76%
    16:00 +1°C° 0.1 mm 4 mps 730 mmHg 78%
    17:00 +1°C° 0.1 mm 4 mps 730 mmHg 79%
    18:00 +1°C° 0 mm 4 mps 730 mmHg 80%
    19:00 0°C° 0 mm 4 mps 731 mmHg 81%
    20:00 0°C° 0 mm 4 mps 731 mmHg 81%
    21:00 0°C° 0 mm 4 mps 731 mmHg 84%
    22:00 -1°C° 0 mm 4 mps 732 mmHg 86%
    23:00 -1°C° 0 mm 4 mps 732 mmHg 88%

    27 October, Saturday

    Time Temperature Precipitation Wind Pressure Humidity
    00:00 -1°C° 0 mm 4 mps 732 mmHg 90%
    01:00 -1°C° 0 mm 4 mps 732 mmHg 91%
    02:00 0°C° 0 mm 3 mps 733 mmHg 92%
    03:00 0°C° 0 mm 3 mps 732 mmHg 92%
    04:00 -1°C° 0 mm 3 mps 732 mmHg 93%
    05:00 -1°C° 0 mm 3 mps 732 mmHg 93%
    06:00 0°C° 0.1 mm 3 mps 732 mmHg 91%
    07:00 -1°C° 0.1 mm 4 mps 731 mmHg 90%
    08:00 -1°C° 0.1 mm 4 mps 731 mmHg 89%
    09:00 0°C° 1.3 mm 4 mps 730 mmHg 89%
    10:00 0°C° 1.3 mm 5 mps 729 mmHg 89%
    11:00 +1°C° 1.3 mm 5 mps 728 mmHg 89%
    12:00 +2°C° 0.7 mm 5 mps 727 mmHg 89%
    13:00 +3°C° 0.7 mm 5 mps 727 mmHg 89%
    14:00 +3°C° 0.7 mm 5 mps 726 mmHg 89%
    15:00 +3°C° 0.1 mm 5 mps 726 mmHg 88%
    16:00 +3°C° 0.1 mm 5 mps 727 mmHg 87%
    17:00 +2°C° 0.1 mm 5 mps 727 mmHg 86%
    18:00 +2°C° 0.2 mm 5 mps 727 mmHg 84%
    19:00 +2°C° 0.2 mm 5 mps 727 mmHg 83%
    20:00 +2°C° 0.2 mm 5 mps 728 mmHg 82%
    21:00 +1°C° 0.1 mm 5 mps 728 mmHg 84%
    22:00 +1°C° 0.1 mm 4 mps 728 mmHg 86%
    23:00 +1°C° 0.1 mm 4 mps 728 mmHg 88%

    28 October, Sunday

    Time Temperature Precipitation Wind Pressure Humidity
    00:00 +1°C° 0 mm 4 mps 729 mmHg 89%
    01:00 +1°C° 0 mm 4 mps 730 mmHg 90%
    02:00 0°C° 0 mm 4 mps 731 mmHg 92%
    03:00 0°C° 0 mm 4 mps 732 mmHg 90%
    04:00 +1°C° 0 mm 4 mps 733 mmHg 89%
    05:00 +1°C° 0 mm 4 mps 735 mmHg 88%
    06:00 +1°C° 0 mm 4 mps 736 mmHg 88%
    07:00 +1°C° 0 mm 3 mps 737 mmHg 89%
    08:00 +1°C° 0 mm 3 mps 738 mmHg 89%
    09:00 +1°C° 0.1 mm 3 mps 739 mmHg 87%
    10:00 +2°C° 0.1 mm 3 mps 740 mmHg 85%
    11:00 +1°C° 0.1 mm 4 mps 741 mmHg 83%
    12:00 +2°C° 0 mm 3 mps 742 mmHg 82%
    13:00 +2°C° 0 mm 3 mps 743 mmHg 81%
    14:00 +2°C° 0 mm 3 mps 744 mmHg 80%
    15:00 +2°C° 0 mm 3 mps 744 mmHg 82%
    16:00 +1°C° 0 mm 3 mps 745 mmHg 85%
    17:00 +2°C° 0 mm 2 mps 745 mmHg 87%
    18:00 +2°C° 0 mm 2 mps 746 mmHg 88%
    19:00 +1°C° 0 mm 2 mps 746 mmHg 89%
    20:00 +1°C° 0 mm 2 mps 747 mmHg 90%
    21:00 -1°C° 0 mm 2 mps 747 mmHg 90%
    22:00 -1°C° 0 mm 2 mps 748 mmHg 91%
    23:00 -1°C° 0 mm 2 mps 748 mmHg 91%

    29 October, Monday

    Time Temperature Precipitation Wind Pressure Humidity
    00:00 +1°C° 0 mm 1 mps 748 mmHg 92%
    01:00 0°C° 0 mm 1 mps 749 mmHg 92%
    02:00 0°C° 0 mm 1 mps 749 mmHg 92%
    03:00 0°C° 0 mm 1 mps 749 mmHg 92%
    04:00 0°C° 0 mm 1 mps 749 mmHg 92%
    05:00 0°C° 0 mm 0 mps 749 mmHg 92%
    06:00 0°C° 0 mm 0 mps 750 mmHg 90%
    07:00 0°C° 0 mm 0 mps 750 mmHg 89%
    08:00 0°C° 0 mm 0 mps 750 mmHg 88%
    09:00 +2°C° 0.1 mm 1 mps 750 mmHg 87%
    10:00 +2°C° 0.1 mm 1 mps 750 mmHg 86%
    11:00 +3°C° 0.1 mm 1 mps 750 mmHg 84%
    12:00 +2°C° 0.2 mm 2 mps 750 mmHg 85%
    13:00 +2°C° 0.2 mm 2 mps 750 mmHg 87%
    14:00 +2°C° 0.2 mm 2 mps 750 mmHg 88%
    15:00 +2°C° 0.4 mm 2 mps 750 mmHg 89%
    16:00 0°C° 0.4 mm 3 mps 749 mmHg 90%
    17:00 0°C° 0.4 mm 3 mps 749 mmHg 92%
    18:00 -1°C° 0.8 mm 4 mps 749 mmHg 92%
    19:00 -1°C° 0.8 mm 4 mps 749 mmHg 92%
    20:00 -1°C° 0.8 mm 5 mps 748 mmHg 91%
    21:00 -1°C° 1.1 mm 5 mps 748 mmHg 92%
    22:00 -1°C° 1.1 mm 5 mps 748 mmHg 92%
    23:00 -1°C° 1.1 mm 5 mps 747 mmHg 92%
    Show more